Wahoo, NE

4:08 AM CDT on March 30, 2017 (GMT -0500)
Wahoo Municipal

Weather History for KAHQ - November, 2013

Change the Weather History Date:

Friday, November 15, 2013

  Actual Average Record
Temperature  
Mean Temperature 42 °F -  
Max Temperature 58 °F 49 °F 73 °F (1990)
Min Temperature 25 °F 27 °F 12 °F (1972)
Degree Days  
Heating Degree Days 24    
Moisture  
Dew Point 33 °F    
Average Humidity 75    
Maximum Humidity 95    
Minimum Humidity 41    
Precipitation  
Precipitation 0.00 in - - ()
Sea Level Pressure  
Sea Level Pressure 29.76 in    
Wind  
Wind Speed 5 mph (SSE)    
Max Wind Speed 20 mph    
Max Gust Speed 24 mph    
Visibility 9 miles    
Events      
Averages and records for this station are not official NWS values.
T = Trace of Precipitation, MM = Missing Value Source: NWS Daily Summary

Daily Weather History Graph

Daily Weather History Graph

Search for Another Location

Airport or City:

Trip Planner

Search our weather history database for the weather conditions in past years. The results will help you decide how hot, cold, wet, or windy it might be!

Date:

Astronomy

Nov. 15, 2013 Rise Set
Actual Time 7:14 AM CST 5:06 PM CST
Civil Twilight 6:45 AM CST 5:36 PM CST
Nautical Twilight 6:11 AM CST 6:09 PM CST
Astronomical Twilight 5:39 AM CST 6:42 PM CST
Moon 4:05 PM CST (11/15) 5:11 AM CST (11/15)
Length of Visible Light 10h 51m
Length of Day
9h 52m
Waxing Gibbous, 96% of the Moon is Illuminated
Nov 15
Waxing Gibbous
Nov 17
Full
Nov 25
Last Quarter
Dec 2
New
Dec 9
First Quarter

Hourly Weather History & Observations

Time (CST) Temp. Windchill Dew Point Humidity Pressure Visibility Wind Dir Wind Speed Gust Speed Precip Events Conditions
12:55 AM 32.0 °F - 29.3 °F 90% 29.89 in 10.0 mi Calm Calm - N/A   Clear
1:15 AM 30.7 °F - 28.4 °F 91% 29.88 in 10.0 mi Calm Calm - N/A   Clear
1:35 AM 30.6 °F - 28.4 °F 92% 29.88 in 10.0 mi Calm Calm - N/A   Clear
1:55 AM 30.9 °F - 28.8 °F 92% 29.88 in 10.0 mi Calm Calm - N/A   Clear
2:15 AM 30.9 °F 26.2 °F 28.8 °F 92% 29.88 in 10.0 mi South 4.6 mph - N/A   Clear
2:35 AM 29.7 °F - 27.7 °F 92% 29.88 in 10.0 mi Calm Calm - N/A   Clear
2:55 AM 30.2 °F - 28.2 °F 92% 29.88 in 10.0 mi Calm Calm - N/A   Clear
3:15 AM 31.3 °F - 29.5 °F 93% 29.87 in 7.0 mi Calm Calm - N/A   Clear
3:35 AM 30.4 °F - 28.8 °F 94% 29.87 in 7.0 mi Calm Calm - N/A   Clear
3:55 AM 29.8 °F - 28.0 °F 93% 29.86 in 7.0 mi Calm Calm - N/A   Clear
4:15 AM 29.7 °F 24.7 °F 27.9 °F 93% 29.87 in 0.8 mi SE 4.6 mph - N/A   Mist
4:35 AM 27.9 °F - 26.4 °F 94% 29.87 in 7.0 mi Calm Calm - N/A   Clear
4:55 AM 28.4 °F - 27.1 °F 95% 29.87 in 5.0 mi Calm Calm - N/A   Clear
5:15 AM 28.2 °F - 26.8 °F 94% 29.87 in 7.0 mi Calm Calm - N/A   Clear
5:35 AM 27.5 °F 23.6 °F 26.2 °F 95% 29.85 in 4.0 mi SSE 3.5 mph - N/A   Clear
5:55 AM 26.8 °F - 25.5 °F 95% 29.85 in 7.0 mi Calm Calm - N/A   Clear
6:15 AM 27.7 °F - 26.4 °F 95% 29.86 in 5.0 mi Calm Calm - N/A   Clear
6:35 AM 27.5 °F - 26.2 °F 95% 29.86 in 2.5 mi Calm Calm - N/A   Clear
6:55 AM 26.4 °F - 25.0 °F 94% 29.86 in 3.0 mi Calm Calm - N/A   Clear
7:15 AM 25.7 °F - 24.3 °F 94% 29.86 in 4.0 mi Calm Calm - N/A   Clear
7:35 AM 26.6 °F - 25.3 °F 95% 29.86 in 3.0 mi Calm Calm - N/A   Clear
7:55 AM 27.7 °F 23.8 °F 26.4 °F 95% 29.86 in 5.0 mi ESE 3.5 mph - N/A   Clear
8:15 AM 29.7 °F - 28.4 °F 95% 29.86 in 7.0 mi Calm Calm - N/A   Clear
8:35 AM 31.3 °F - 29.8 °F 94% 29.87 in 7.0 mi Calm Calm - N/A   Clear
8:55 AM 32.9 °F 29.8 °F 31.1 °F 93% 29.85 in 10.0 mi SE 3.5 mph - N/A   Clear
9:15 AM 36.3 °F 30.8 °F 33.3 °F 89% 29.84 in 10.0 mi SE 6.9 mph - N/A   Clear
9:35 AM 39.0 °F - 34.5 °F 84% 29.85 in 10.0 mi North - - N/A   Clear
9:55 AM 40.3 °F - 35.1 °F 82% 29.85 in 10.0 mi North - - N/A   Clear
10:15 AM 41.4 °F - 35.6 °F 80% 29.85 in 10.0 mi North - - N/A   Clear
10:35 AM 42.8 °F - 35.4 °F 75% 29.85 in 10.0 mi North - - N/A   Clear
10:55 AM 43.7 °F - 35.6 °F 73% 29.85 in 10.0 mi North - - N/A   Clear
11:15 AM 46.4 °F - 36.0 °F 67% 29.83 in 10.0 mi North - - N/A   Clear
11:35 AM 48.2 °F - 34.9 °F 60% 29.83 in 10.0 mi SSE 10.4 mph - N/A   Clear
11:55 AM 49.8 °F - 34.2 °F 55% 29.82 in 10.0 mi South 10.4 mph - N/A   Clear
12:15 PM 52.5 °F - 33.3 °F 48% 29.80 in 10.0 mi SSE 12.7 mph 17.3 mph N/A   Clear
12:35 PM 52.9 °F - 32.9 °F 47% 29.79 in 10.0 mi SSE 12.7 mph 20.7 mph N/A   Clear
12:55 PM 53.6 °F - 33.1 °F 46% 29.77 in 10.0 mi South 15.0 mph - N/A   Clear
1:15 PM 55.8 °F - 33.3 °F 43% 29.77 in 10.0 mi South 15.0 mph - N/A   Clear
1:35 PM 55.8 °F - 33.6 °F 43% 29.76 in 10.0 mi South 12.7 mph - N/A   Clear
1:55 PM 56.7 °F - 34.0 °F 42% 29.73 in 10.0 mi South 15.0 mph 21.9 mph N/A   Clear
2:15 PM 57.2 °F - 33.8 °F 41% 29.72 in 10.0 mi South 16.1 mph 21.9 mph N/A   Clear
2:35 PM 58.1 °F - 34.3 °F 41% 29.71 in 10.0 mi SSE 19.6 mph 24.2 mph N/A   Clear
2:55 PM 57.6 °F - 34.2 °F 41% 29.71 in 10.0 mi South 16.1 mph 23.0 mph N/A   Clear
3:15 PM 57.6 °F - 34.3 °F 42% 29.70 in 10.0 mi South 17.3 mph - N/A   Clear
3:35 PM 57.2 °F - 34.7 °F 43% 29.69 in 10.0 mi South 17.3 mph 24.2 mph N/A   Clear
3:55 PM 56.5 °F - 34.7 °F 44% 29.68 in 10.0 mi SSE 16.1 mph - N/A   Clear
4:15 PM 55.6 °F - 34.7 °F 45% 29.68 in 10.0 mi SSE 11.5 mph - N/A   Clear
4:35 PM 53.6 °F - 34.7 °F 49% 29.66 in 10.0 mi SE 11.5 mph - N/A   Clear
4:55 PM 50.9 °F - 35.1 °F 55% 29.66 in 10.0 mi SE 11.5 mph - N/A   Clear
5:15 PM 49.1 °F - 34.9 °F 58% 29.65 in 10.0 mi SE 12.7 mph - N/A   Clear
5:35 PM 48.2 °F - 34.9 °F 60% 29.66 in 10.0 mi SSE 11.5 mph - N/A   Clear
5:55 PM 47.8 °F - 35.1 °F 61% 29.66 in 10.0 mi SSE 12.7 mph - N/A   Clear
6:15 PM 47.3 °F - 35.6 °F 64% 29.65 in 10.0 mi SSE 13.8 mph - N/A   Clear
6:35 PM 47.3 °F - 35.6 °F 64% 29.65 in 10.0 mi SSE 15.0 mph - N/A   Clear
6:55 PM 46.6 °F - 36.0 °F 67% 29.65 in 10.0 mi SSE 15.0 mph - N/A   Clear
7:15 PM 45.9 °F 39.7 °F 36.1 °F 69% 29.64 in 10.0 mi SSE 13.8 mph - N/A   Clear
7:35 PM 46.0 °F 40.2 °F 36.7 °F 70% 29.64 in 10.0 mi SSE 12.7 mph - N/A   Clear
7:55 PM 44.4 °F 39.5 °F 36.5 °F 74% 29.64 in 10.0 mi SSE 9.2 mph - N/A   Clear
8:15 PM 44.4 °F 41.2 °F 36.7 °F 74% 29.65 in 10.0 mi South 5.8 mph - N/A   Clear
8:35 PM 42.1 °F 36.6 °F 36.1 °F 79% 29.65 in 10.0 mi South 9.2 mph - N/A   Clear
8:55 PM 40.6 °F 36.7 °F 35.6 °F 82% 29.65 in 10.0 mi South 5.8 mph - N/A   Clear
9:15 PM 41.5 °F 35.9 °F 36.7 °F 83% 29.64 in 10.0 mi SSE 9.2 mph - N/A   Clear
9:35 PM 43.3 °F 37.7 °F 37.4 °F 80% 29.63 in 10.0 mi SSE 10.4 mph - N/A   Clear
9:55 PM 43.7 °F 38.6 °F 37.9 °F 80% 29.63 in 10.0 mi SSE 9.2 mph - N/A   Clear
10:15 PM 43.5 °F 38.3 °F 38.1 °F 81% 29.62 in 10.0 mi SSE 9.2 mph - N/A   Clear
10:35 PM 43.9 °F 37.5 °F 38.8 °F 82% 29.61 in 10.0 mi SSE 12.7 mph - N/A   Clear
10:55 PM 43.9 °F 37.9 °F 39.0 °F 83% 29.60 in 10.0 mi SSE 11.5 mph - N/A   Clear
11:15 PM 43.7 °F 38.1 °F 39.2 °F 84% 29.59 in 10.0 mi SSE 10.4 mph - N/A   Clear
11:35 PM 43.7 °F 38.1 °F 39.7 °F 86% 29.58 in 10.0 mi SSE 10.4 mph - N/A   Clear
11:55 PM 43.7 °F 39.1 °F 39.7 °F 86% 29.58 in 10.0 mi SSE 8.1 mph - N/A   Clear